Location: Ammerl�gen
(47.2167°N, 9.6000°E)
Time: 02:25:26
(UTC+00:00)

Cosmos 676 Rocket - Pass Details

Date: 30 July 2021
Orbit: 755 x 783 km, 74.0° (Epoch: 18 September)

Event Time Altitude Azimuth Distance (km) Brightness Sun altitude
Exits shadow 01:33:01 24° 168° (SSE) 1,583 5.2 -18.5°
Maximum altitude 01:35:58 49° 105° (ESE) 1,004 4.7 -18.3°
Drops below altitude 10° 01:41:06 10° 32° (NNE) 2,349 7.8 -17.8°
Sets 01:43:33 0° 27° (NNE) 3,280 9.0 -17.6°
